Regional Weather Roundup
Issued by NWS

Current Version | Previous Version | Text Only | Print | Product List | Glossary On
Versions: 1 2 3 4 5 6 7 8 9 10 11 12 13 14 15 16 17 18 19 20 21 22 23 24 25 26 27
000
ASUS44 KLIX 290811
RWRLA
LOUISIANA WEATHER ROUNDUP
NATIONAL WEATHER SERVICE NEW ORLEANS LA
300 AM CDT THU SEP 29 2016

NOTE: "FAIR" INDICATES FEW OR NO CLOUDS BELOW 12,000 FEET WITH NO
      SIGNIFICANT WEATHER AND/OR OBSTRUCTIONS TO VISIBILITY.
      SKY/WX - SKY CONDITION AND SIGNIFICANT WEATHER.
      TMP - AIR TEMPERATURE.    DP   - DEWPOINT TEMPERATURE.
      RH  - RELATIVE HUMIDITY.  PRES - PRESSURE.
      HX  - HEAT INDEX.         WCI  - WIND CHILL INDEX.

*  THESE STATIONS ARE NOT NWS OR FAA STATIONS AND ARE NOT UNDER
   NWS QUALITY CONTROL.

LAZ040-048-061>063-065-066-069-290900-
SOUTHEAST LOUISIANA

CITY           SKY/WX    TMP DP  RH WIND       PRES   REMARKS
N.O. AUDUBON   NOT AVBL
N.O. INTL ARPT PTCLDY    76  70  82 W6        30.00S
N.O. LAKEFRONT CLEAR     81  68  64 NW10      30.00S
N.O. DOWNTOWN*   N/A     78  70  76 CALM      30.01R
RESERVE*       FAIR      72  70  94 CALM      30.01S FOG
SLIDELL        CLEAR     69  66  90 CALM      29.99S
BATON ROUGE    PTCLDY    71  68  90 W5        30.00S
BOOTHVILLE     CLEAR     77  74  90 NW3       30.00R
BELLE CHASSE   CLEAR     72  70  93 CALM      30.00R
BOGALUSA*      FAIR      65  63  90 CALM      30.00F
GALLIANO*      SUNNY    N/A N/A N/A NW3       30.00S
NEW ROADS*     FAIR      64  64  97 MISG      30.01S
GONZALES*      FAIR      69  68  96 CALM      30.00S
HAMMOND*       CLEAR     66  63  88 CALM      30.00S
HOUMA*         CLEAR     72  70  95 NW3       30.01S
PORT FOURCHON* SUNNY     81  72  74 NW12      30.00S

$$

LAZ041-044-053-054-290900-
SOUTHWEST LOUISIANA

CITY           SKY/WX    TMP DP  RH WIND       PRES   REMARKS
LAKE CHARLES   CLEAR     65  64  97 W3        30.03R
LAFAYETTE      CLEAR     72  66  81 W3        30.02S
PATTERSON      CLEAR     73  69  87 NW3       30.02R
SALT POINT     NOT AVBL
NEW IBERIA     CLEAR     69  66  90 W3        30.02S
CHENAULT AIRPK   N/A     65  63  94 CALM      30.03S

$$

LAZ027-028-290900-
CENTRAL LOUISIANA

CITY           SKY/WX    TMP DP  RH WIND       PRES   REMARKS
FORT POLK      NOT AVBL
ALEXANDRIA INT CLEAR     63  60  90 N3        30.00S
ALEXANDRIA     FOG       60  60 100 CALM      30.01S VSB 3/4

$$

LAZ001-002-290900-
NORTHWEST LOUISIANA

CITY           SKY/WX    TMP DP  RH WIND       PRES   REMARKS
SHREVEPORT     CLEAR     70  55  59 NE13      30.07R
BARKSDALE AFB  NOT AVBL
DTN SHREVEPORT CLEAR     69  55  60 N9        30.08R

$$

LAZ014-016-290900-
NORTHEAST LOUISIANA

CITY           SKY/WX    TMP DP  RH WIND       PRES   REMARKS
MONROE         CLEAR     66  56  70 N9        30.05R
TALLULAH       FAIR      65  57  75 N10       30.02R

$$





USA.gov is the U.S. government's official web portal to all federal, state and local government web resources and services.